Weather History for Salisbury, MD

Change the Weather History Date:

Thursday, February 14, 2013

  Actual Average Record
Temperature  
Mean Temperature 42 °F 37 °F  
Max Temperature 50 °F 47 °F 71 °F (1990)
Min Temperature 33 °F 28 °F -1 °F (1979)
Degree Days  
Heating Degree Days 23 28  
Month to date heating degree days 373 399  
Since 1 July heating degree days 2437 2940  
Cooling Degree Days 0 0  
Month to date cooling degree days 0 0  
Year to date cooling degree days 0 0  
Moisture  
Dew Point 33 °F    
Average Humidity 68    
Maximum Humidity 89    
Minimum Humidity 46    
Precipitation  
Precipitation T in 0.12 in 1.16 in (2007)
Month to date precipitation 2.35 1.66  
Year to date precipitation 5.35 5.27  
Snow  
Snow 0.00 in 0.10 in 3.00 in (1965)
Month to date snowfall T 1.9  
Since 1 July snowfall 2.8 6.9  
Snow Depth -    
Sea Level Pressure  
Sea Level Pressure 29.98 in    
Wind  
Wind Speed 5 mph (WNW)    
Max Wind Speed 14 mph    
Max Gust Speed 18 mph    
Visibility 6 miles    
Events      
T = Trace of Precipitation, MM = Missing Value Source: NWS Daily Summary

Daily Weather History Graph

Daily Weather History Graph

Search for Another Location

Airport:

Trip Planner

Search our weather history database for the weather conditions in past years. The results will help you decide how hot, cold, wet, or windy it might be!

Date:

Astronomy

Feb. 14, 2013 Rise Set
Actual Time 6:53 AM EST 5:39 PM EST
Civil Twilight 6:26 AM EST 6:06 PM EST
Nautical Twilight 5:55 AM EST 6:37 PM EST
Astronomical Twilight 5:24 AM EST 7:08 PM EST
Moon 8:58 AM EST (2/14) 10:35 PM EST (2/14)
Length of Visible Light 11h 40m
Length of Day
10h 46m
Waxing Crescent, 21% of the Moon is Illuminated
Feb 14
Waxing Crescent
Feb 17
First Quarter
Feb 25
Full
Mar 4
Last Quarter
Mar 11
New

Hourly Weather History & Observations

Time (EST) Temp. Windchill Dew Point Humidity Pressure Visibility Wind Dir Wind Speed Gust Speed Precip Events Conditions
12:54 AM 37.9 °F 33.5 °F 34.0 °F 86% 29.76 in 5.0 mi NNW 5.8 mph - 0.00 in   Overcast
1:54 AM 37.9 °F 30.9 °F 34.0 °F 86% 29.80 in 6.0 mi NW 10.4 mph - N/A   Overcast
2:54 AM 37.9 °F 32.1 °F 34.0 °F 86% 29.83 in 5.0 mi NW 8.1 mph - N/A   Overcast
3:54 AM 37.9 °F 34.4 °F 34.0 °F 86% 29.85 in 5.0 mi NW 4.6 mph - N/A   Overcast
4:54 AM 37.9 °F 35.5 °F 34.0 °F 86% 29.90 in 5.0 mi West 3.5 mph - N/A   Overcast
5:38 AM 37.4 °F 33.8 °F 33.8 °F 87% 29.90 in 5.0 mi WNW 4.6 mph - N/A   Overcast
5:54 AM 37.9 °F 34.4 °F 34.0 °F 86% 29.92 in 4.0 mi WNW 4.6 mph - N/A   Overcast
6:25 AM 37.4 °F 34.9 °F 33.8 °F 87% 29.93 in 4.0 mi West 3.5 mph - N/A   Overcast
6:54 AM 37.9 °F 35.5 °F 34.0 °F 86% 29.95 in 3.0 mi West 3.5 mph - N/A   Mostly Cloudy
7:06 AM 37.4 °F 34.9 °F 33.8 °F 87% 29.94 in 2.5 mi West 3.5 mph - N/A   Mostly Cloudy
7:17 AM 37.4 °F - 33.8 °F 87% 29.95 in 2.5 mi Calm Calm - N/A   Scattered Clouds
7:54 AM 37.9 °F 35.5 °F 34.0 °F 86% 29.98 in 2.0 mi WNW 3.5 mph - N/A   Clear
8:32 AM 39.2 °F 37.0 °F 35.6 °F 87% 29.98 in 2.5 mi WNW 3.5 mph - N/A   Partly Cloudy
8:39 AM 39.2 °F 35.9 °F 35.6 °F 87% 29.98 in 3.0 mi NW 4.6 mph - N/A   Haze
8:54 AM 41.0 °F 35.8 °F 35.1 °F 79% 29.99 in 4.0 mi NNW 8.1 mph - N/A   Haze
9:05 AM 41.0 °F 35.8 °F 35.6 °F 81% 29.99 in 5.0 mi NW 8.1 mph - N/A   Haze
9:22 AM 41.0 °F 35.2 °F 33.8 °F 76% 29.99 in 6.0 mi NNW 9.2 mph - N/A   Haze
9:45 AM 42.8 °F 38.6 °F 35.6 °F 76% 29.99 in 5.0 mi NNW 6.9 mph - N/A   Haze
9:54 AM 42.1 °F 36.6 °F 34.0 °F 73% 30.01 in 5.0 mi NNW 9.2 mph - N/A   Haze
10:22 AM 44.6 °F 40.7 °F 35.6 °F 71% 30.00 in 5.0 mi NNW 6.9 mph - N/A   Haze
10:54 AM 43.0 °F 38.2 °F 33.1 °F 68% 30.02 in 7.0 mi NNW 8.1 mph - N/A   Mostly Cloudy
11:54 AM 45.0 °F 43.5 °F 33.1 °F 63% 30.01 in 7.0 mi NW 3.5 mph - N/A   Mostly Cloudy
12:19 PM 46.4 °F - 33.8 °F 62% 30.00 in 7.0 mi Calm Calm - N/A   Scattered Clouds
12:27 PM 46.4 °F 44.3 °F 33.8 °F 62% 30.00 in 7.0 mi NW 4.6 mph - N/A   Mostly Cloudy
12:54 PM 46.9 °F - 33.1 °F 59% 30.00 in 9.0 mi West 5.8 mph - N/A   Mostly Cloudy
1:04 PM 46.4 °F 45.2 °F 33.8 °F 62% 29.99 in 9.0 mi WSW 3.5 mph - N/A   Scattered Clouds
1:54 PM 48.9 °F - 33.1 °F 54% 30.00 in 10.0 mi West 8.1 mph - N/A   Mostly Cloudy
2:54 PM 48.9 °F - 32.0 °F 52% 30.00 in 10.0 mi WSW 6.9 mph - N/A   Scattered Clouds
3:54 PM 50.0 °F - 30.9 °F 48% 30.00 in 10.0 mi Variable 3.5 mph - N/A   Partly Cloudy
4:54 PM 48.0 °F - 30.0 °F 50% 30.00 in 10.0 mi SW 4.6 mph - N/A   Clear
5:54 PM 43.0 °F 38.2 °F 35.1 °F 74% 30.02 in 9.0 mi SE 8.1 mph - N/A   Clear
6:54 PM 41.0 °F - 35.1 °F 79% 30.04 in 7.0 mi Calm Calm - N/A   Clear
7:54 PM 37.0 °F - 33.1 °F 86% 30.04 in 5.0 mi Calm Calm - N/A   Clear
8:54 PM 34.0 °F 31.0 °F 30.0 °F 85% 30.06 in 5.0 mi East 3.5 mph - N/A   Clear
9:09 PM 33.8 °F - 30.2 °F 87% 30.05 in 2.5 mi Calm Calm - N/A   Clear
9:18 PM 35.6 °F - 30.2 °F 81% 30.05 in 4.0 mi Calm Calm - N/A   Haze
9:54 PM 34.0 °F - 28.9 °F 82% 30.06 in 3.0 mi Calm Calm - N/A   Haze
10:54 PM 34.0 °F 31.0 °F 30.0 °F 85% 30.08 in 4.0 mi South 3.5 mph - N/A   Clear
11:54 PM 36.0 °F 33.3 °F 30.9 °F 82% 30.07 in 4.0 mi South 3.5 mph - N/A   Haze